Date String (YYYY-MM-DD hh:mm:ss) UTC,Instrument flags,Ambient pressure (hPa),Sample flow (lpm),Bypass flow (lpm),Sample temperature (°C),Ambient temperature (°C),ASC tube jacket temperature (°C),LED temperature (°C),Box temperature (°C),Sample RH (%),Span deviation,Mass concentration (μg/m³),Mass concentration (μg/m³),Mass concentration (μg/m³)
DateTimeUTC,F1_M11,P_M11,Q1_M11,Q2_M11,T1_M11,T2_M11,T3_M11,T4_M11,T5_M11,U1_M11,ZSPAN_M11,X0_M11,X2_M11,X1_M11
2022-06-29 22:00:00,,0828.0,5.01,0.00,28.9,27.6,00.0,37.7,30.9,21.4,0000.0,0013.16,0004.78,0003.64
2022-06-29 22:01:00,,0828.1,4.99,0.00,28.9,27.8,00.0,37.7,31.0,21.4,0000.0,0012.97,0004.75,0003.61
2022-06-29 22:02:00,,0828.1,5.01,0.00,29.0,27.9,00.0,37.7,31.0,21.5,0000.0,0013.19,0004.69,0003.58
2022-06-29 22:03:00,,0828.1,5.00,0.00,29.0,27.4,00.0,37.7,30.9,21.8,0000.0,0013.37,0004.69,0003.55
2022-06-29 22:04:00,,0828.1,4.99,0.00,28.9,26.8,00.0,37.6,30.7,22.1,0000.0,0014.61,0004.67,0003.52
2022-06-29 22:05:00,,0828.1,5.00,0.00,28.9,26.8,00.0,37.6,30.7,22.5,0000.0,0014.50,0004.65,0003.49
2022-06-29 22:06:00,,0828.1,5.01,0.00,28.9,27.0,00.0,37.6,30.7,22.8,0000.0,0014.45,0004.59,0003.46
2022-06-29 22:07:00,,0828.1,5.00,0.00,28.9,27.1,00.0,37.6,30.8,23.0,0000.0,0013.63,0004.51,0003.42
2022-06-29 22:08:00,,0828.1,5.00,0.00,28.9,27.4,00.0,37.6,30.8,23.2,0000.0,0014.25,0004.49,0003.41
2022-06-29 22:09:00,,0828.2,4.99,0.00,28.9,27.6,00.0,37.7,30.9,23.2,0000.0,0015.39,0004.51,0003.39
2022-06-29 22:10:00,,0828.2,5.00,0.00,28.9,27.8,00.0,37.7,31.0,23.3,0000.0,0015.92,0004.55,0003.38
2022-06-29 22:11:00,,0828.2,4.99,0.00,29.0,27.9,00.0,37.7,31.0,23.5,0000.0,0016.24,0004.52,0003.38
2022-06-29 22:12:00,,0828.2,4.99,0.00,29.0,27.3,00.0,37.6,30.8,23.7,0000.0,0016.31,0004.54,0003.38
2022-06-29 22:13:00,,0828.2,5.00,0.00,28.9,26.7,00.0,37.6,30.6,23.7,0000.0,0017.16,0004.57,0003.40
2022-06-29 22:14:00,,0828.2,5.00,0.00,28.8,26.7,00.0,37.6,30.6,23.3,0000.0,0017.53,0004.62,0003.40
2022-06-29 22:15:00,,0828.1,5.00,0.00,28.8,26.8,00.0,37.6,30.7,23.2,0000.0,0017.08,0004.61,0003.37
2022-06-29 22:16:00,,0828.2,5.00,0.00,28.8,27.0,00.0,37.6,30.7,23.4,0000.0,0016.55,0004.53,0003.34
2022-06-29 22:17:00,,0828.2,5.00,0.00,28.8,27.2,00.0,37.6,30.8,22.9,0000.0,0016.66,0004.48,0003.32
2022-06-29 22:18:00,,0828.2,4.99,0.00,28.9,27.5,00.0,37.6,30.8,22.7,0000.0,0017.48,0004.42,0003.28
2022-06-29 22:19:00,,0828.1,5.00,0.00,28.9,27.7,00.0,37.6,30.9,22.8,0000.0,0017.62,0004.41,0003.25
2022-06-29 22:20:00,,0828.2,4.99,0.00,28.9,27.9,00.0,37.6,31.0,22.5,0000.0,0016.35,0004.32,0003.22
2022-06-29 22:21:00,,0828.2,4.99,0.00,29.0,28.0,00.0,37.7,31.0,22.5,0000.0,0016.90,0004.18,0003.18
2022-06-29 22:22:00,,0828.1,5.00,0.00,29.0,27.6,00.0,37.6,30.9,22.8,0000.0,0019.17,0004.11,0003.15
2022-06-29 22:23:00,,0828.1,5.00,0.00,28.9,26.9,00.0,37.6,30.7,22.9,0000.0,0018.92,0004.04,0003.11
2022-06-29 22:24:00,,0828.0,4.99,0.00,28.9,26.8,00.0,37.6,30.6,23.3,0000.0,0018.61,0004.01,0003.06
2022-06-29 22:25:00,,0828.0,5.01,0.00,28.8,26.8,00.0,37.6,30.7,23.3,0000.0,0017.54,0003.91,0002.99
2022-06-29 22:26:00,,0828.0,5.00,0.00,28.8,27.0,00.0,37.6,30.7,23.4,0000.0,0017.39,0003.85,0002.98
2022-06-29 22:27:00,,0827.9,5.00,0.00,28.8,27.2,00.0,37.6,30.8,23.5,0000.0,0017.28,0003.85,0002.98
2022-06-29 22:28:00,,0828.0,5.01,0.00,28.9,27.4,00.0,37.6,30.8,23.6,0000.0,0016.94,0003.86,0002.98
2022-06-29 22:29:00,,0828.0,4.99,0.00,28.9,27.7,00.0,37.6,30.9,23.6,0000.0,0016.22,0003.88,0003.00
2022-06-29 22:30:00,,0828.0,5.00,0.00,28.9,27.9,00.0,37.7,31.0,23.5,0000.0,0015.85,0003.90,0003.03
2022-06-29 22:31:00,,0828.0,5.00,0.00,29.0,28.0,00.0,37.7,31.0,23.5,0000.0,0015.81,0003.90,0003.04
2022-06-29 22:32:00,,0828.0,5.00,0.00,29.0,27.7,00.0,37.7,30.9,23.4,0000.0,0014.85,0003.99,0003.07
2022-06-29 22:33:00,,0828.0,5.00,0.00,28.9,27.0,00.0,37.6,30.7,23.7,0000.0,0012.12,0004.02,0003.11
2022-06-29 22:34:00,,0828.0,5.00,0.00,28.9,26.8,00.0,37.6,30.7,23.9,0000.0,0012.31,0004.05,0003.13
2022-06-29 22:35:00,,0828.0,5.00,0.00,28.9,26.9,00.0,37.6,30.7,23.4,0000.0,0011.88,0004.04,0003.15
2022-06-29 22:36:00,,0828.0,5.00,0.00,28.9,27.1,00.0,37.6,30.7,23.7,0000.0,0012.04,0004.07,0003.17
2022-06-29 22:37:00,,0828.0,4.99,0.00,28.9,27.3,00.0,37.6,30.8,24.5,0000.0,0011.71,0004.10,0003.19
2022-06-29 22:38:00,,0828.1,5.00,0.00,28.9,27.5,00.0,37.6,30.9,24.2,0000.0,0011.75,0004.12,0003.20
2022-06-29 22:39:00,,0828.1,5.00,0.00,28.9,27.7,00.0,37.7,30.9,23.8,0000.0,0012.16,0004.19,0003.23
2022-06-29 22:40:00,,0828.1,5.01,0.00,29.0,27.9,00.0,37.7,31.0,23.7,0000.0,0012.12,0004.25,0003.25
2022-06-29 22:41:00,,0828.1,4.99,0.00,29.0,27.6,00.0,37.7,30.9,23.8,0000.0,0013.93,0004.30,0003.26
2022-06-29 22:42:00,,0828.1,5.00,0.00,28.9,26.9,00.0,37.6,30.7,23.9,0000.0,0015.15,0004.40,0003.29
2022-06-29 22:43:00,,0828.2,5.01,0.00,28.9,26.8,00.0,37.6,30.7,24.3,0000.0,0015.02,0004.43,0003.32
2022-06-29 22:44:00,,0828.1,4.99,0.00,28.8,26.8,00.0,37.6,30.7,24.6,0000.0,0015.21,0004.53,0003.35
2022-06-29 22:45:00,,0828.2,5.01,0.00,28.8,27.0,00.0,37.6,30.7,24.4,0000.0,0015.57,0004.57,0003.37
2022-06-29 22:46:00,,0828.2,5.01,0.00,28.8,27.2,00.0,37.6,30.7,24.6,0000.0,0016.05,0004.61,0003.39
2022-06-29 22:47:00,,0828.2,5.00,0.00,28.9,27.4,00.0,37.6,30.8,24.3,0000.0,0015.84,0004.67,0003.42
2022-06-29 22:48:00,,0828.2,5.00,0.00,28.9,27.6,00.0,37.6,30.9,23.8,0000.0,0017.03,0004.75,0003.45
2022-06-29 22:49:00,,0828.2,5.00,0.00,28.9,27.8,00.0,37.7,31.0,23.7,0000.0,0017.08,0004.79,0003.48
2022-06-29 22:50:00,,0828.3,4.99,0.00,29.0,28.0,00.0,37.7,31.0,24.3,0000.0,0017.13,0004.81,0003.48
2022-06-29 22:51:00,,0828.3,5.00,0.00,29.0,27.8,00.0,37.7,31.0,23.7,0000.0,0018.18,0004.83,0003.50
2022-06-29 22:52:00,,0828.2,5.01,0.00,28.9,27.1,00.0,37.6,30.7,23.2,0000.0,0016.90,0004.83,0003.53
2022-06-29 22:53:00,,0828.3,5.00,0.00,28.9,26.8,00.0,37.6,30.6,24.0,0000.0,0015.10,0004.78,0003.55
2022-06-29 22:54:00,,0828.2,4.99,0.00,28.9,26.8,00.0,37.6,30.7,23.5,0000.0,0014.83,0004.75,0003.55
2022-06-29 22:55:00,,0828.1,4.99,0.00,28.8,27.0,00.0,37.6,30.7,23.5,0000.0,0014.66,0004.71,0003.56
2022-06-29 22:56:00,,0828.1,5.00,0.00,28.8,27.2,00.0,37.6,30.7,23.0,0000.0,0015.16,0004.71,0003.56
2022-06-29 22:57:00,,0828.1,5.00,0.00,28.9,27.4,00.0,37.6,30.8,23.0,0000.0,0015.24,0004.74,0003.57
2022-06-29 22:58:00,,0828.1,5.00,0.00,28.9,27.6,00.0,37.6,30.9,23.6,0000.0,0015.46,0004.75,0003.57
2022-06-29 22:59:00,,0828.0,5.01,0.00,28.9,27.8,00.0,37.7,31.0,23.9,0000.0,0015.12,0004.73,0003.57
